Tracking 33404 objects as of 6-Mar-2026
HD Live streaming from Space Station
objects crossing your sky now

STARLINK-6360

Track STARLINK-6360 now!
10-day predictions
STARLINK-6360 is classified as:


NORAD ID: 57235
Int'l Code: 2023-094T
Perigee: 543.8 km
Apogee: 545.1 km
Inclination: 43.0 °
Period: 95.4 minutes
Semi major axis: 6915 km
RCS: Unknown
Launch date: July 7, 2023
Source: United States (US)
Launch site: AIR FORCE WESTERN TEST RANGE (AFWTR)
Your satellite tracking list
Your tracking list is empty




NASA's NSSDC Master Catalog

Two Line Element Set (TLE):
1 57235U 23094T   26065.25002315  .00045903  00000-0  27999-2 0  9996
2 57235  43.0009  48.6015 0000909 309.8448 186.4421 15.09638771  5680
Source of the keplerian elements: AFSPC